Location: Seven Kings
(51.5667°N, 0.1000°E)
Time: 12:04:01
(UTC+00:00)

ATLAS 5 CENTAUR R/B - Pass Details

Date: 29 October 2020
Orbit: 531 x 1127 km, 63.4° (Epoch: 22 November)

Event Time Altitude Azimuth Distance (km) Brightness Sun altitude
Rises 19:53:29 0° 307° (NW) 3,026 6.1 -30.8°
Reaches altitude 10° 19:55:59 10° 320° (NW) 2,201 5.0 -31.1°
Enters shadow 19:59:01 25° 355° (N) 1,531 3.7 -31.6°
